Back to catalog

EXPRESS AM-3

AliveCommunicationsGEO
NORAD 28707·PAYLOAD·🇷🇺 Russia

Launched Jun 24, 2005 from Baikonur Cosmodrome

Loading…

TLE

FreshSource: Space-Track

Epoch: Sep 14, 2026, 10:52 UTC

1 28707U 05023A   26257.45309795 -.00000110  00000-0  00000-0 0  9991
2 28707   7.5308  67.0236 0004707 183.8622   9.6668  0.98998419 54091

Track EXPRESS AM-3 in real time with AllMySat

Download on the App Store